Regional Weather Roundup
Issued by NWS

Home | Current Version | Previous Version | Text Only | Print | Product List | Glossary Off
Versions: 1 2 3 4 5 6 7 8 9 10 11 12 13 14 15 16 17 18 19 20 21 22 23 24 25 26 27 28 29 30 31 32 33 34 35 36 37 38 39 40 41 42 43 44 45 46 47 48 49 50

000
ASUS44 KMEG 190200
RWRTN
TENNESSEE HOURLY STATE WEATHER ROUNDUP
NATIONAL WEATHER SERVICE MEMPHIS TN
900 PM CDT SAT APR 18 2015

TNZ002-004-019-021-049-052-054-088>092-190300-
WEST TENNESSEE

CITY           SKY/WX    TMP DP  RH WIND       PRES   REMARKS
MEMPHIS INTL   LGT RAIN  69  61  75 SE5       29.85S
NWS MEMPHIS      N/A    N/A N/A N/A MISG        N/A
JACKSON        CLOUDY    68  62  81 S5        29.86R
DYERSBURG      CLOUDY    70  54  56 CALM      29.85R
UNION CITY     CLOUDY    70  32  24 CALM      29.84R
PARIS          CLEAR     70  57  64 NE3       29.86R
LEXINGTON      PTCLDY    70  61  73 CALM      29.85F
SAVANNAH       PTCLDY    68  32  26 CALM      29.87S
$$

TNZ008-025-027-028-033-062-065-066-190300-
NORTH MIDDLE TENNESSEE

CITY           SKY/WX    TMP DP  RH WIND       PRES   REMARKS
NASHVILLE      MOCLDY    66  64  93 S3        29.88S
CLARKSVILLE    CLOUDY    70  60  70 SE7       29.87S
COOKEVILLE     CLOUDY    72  61  68 SE5       29.91S
CROSSVILLE     CLOUDY    66  57  72 SE7       29.97S
$$

TNZ061-075-076-078-094-096-097-190300-
SOUTH MIDDLE TENNESSEE

CITY           SKY/WX    TMP DP  RH WIND       PRES   REMARKS
FAYETTEVILLE     N/A     66  61  82 S5        29.90S
TULLAHOMA      CLEAR     70  59  68 CALM      29.92S
WINCHESTER     PTCLDY    68  61  77 SE5       29.92R
MCMINNVILLE    PTCLDY    68  64  88 S3        29.92R
COLUMBIA       CLEAR     68  32  26 SE5       29.88R
SHELBYVILLE    CLEAR     64  64 100 CALM      29.90S
$$

TNZ017-018-042-046-047-190300-
NORTHEAST TENNESSEE

CITY           SKY/WX    TMP DP  RH WIND       PRES   REMARKS
TRI CITIES     LGT RAIN  67  59  75 CALM      30.00R
ELIZABETHTON   LGT RAIN  63  57  82 CALM      30.02R
$$

TNZ012-013-036-069-073-074-190300-
CENTRAL EAST TENNESSEE

CITY           SKY/WX    TMP DP  RH WIND       PRES   REMARKS
KNOXVILLE      CLOUDY    66  64  93 E3        29.95R
OAK RIDGE      CLOUDY    70  63  78 W5        29.96S
GATLINBURG     MOCLDY    64  63  94 CALM      29.96S
$$

TNZ083-085-099-190300-
SOUTHEAST TENNESSEE

CITY           SKY/WX    TMP DP  RH WIND       PRES   REMARKS
CHATTANOOGA    CLOUDY    70  64  81 NE6       29.94R
$$

SKY/WX REPORTED AS FAIR MEANS FEW OR NO CLOUDS BELOW
12 THOUSAND FEET.



USA.gov is the U.S. government's official web portal to all federal, state and local government web resources and services.